DLH8AC EDDF-EDDS

Flight info

Callsign DLH8AC
Flight time 0h 29m
Altitude 21000
Route ANEKI2L/18 ANEKI Y163 NEKLO Y171 INKAM N850 KRH T128 BADSO BADSO2A
Aircraft A320/M-SDE2E3FGIJ1LORWXYZ/HB1

Departure

Time 2026-04-14 08:03
Airport Frankfurt Main Airport (EDDF)

Arrival

Time 2026-04-14 08:32
Airport Stuttgart Airport (EDDS)
Time Latitude Longitude Altitude Speed Heading
2026-04-14 07:31 50.04176 8.56132 364 ft 0 kts 159°
2026-04-14 07:56 50.04167 8.56137 368 ft 6 kts 160°
2026-04-14 07:56 50.04116 8.56174 367 ft 9 kts 133°
2026-04-14 07:57 50.04121 8.56256 365 ft 8 kts 70°
2026-04-14 07:57 50.04158 8.56287 365 ft 6 kts 349°
2026-04-14 07:57 50.04212 8.56257 365 ft 12 kts 340°
2026-04-14 07:57 50.04287 8.56186 365 ft 14 kts 291°
2026-04-14 07:58 50.04261 8.56030 368 ft 16 kts 249°
2026-04-14 07:58 50.04218 8.55849 368 ft 19 kts 250°
2026-04-14 07:58 50.04168 8.55640 365 ft 22 kts 249°
2026-04-14 07:58 50.04112 8.55405 367 ft 24 kts 250°
2026-04-14 07:59 50.04051 8.55152 371 ft 24 kts 249°
2026-04-14 07:59 50.04005 8.54961 369 ft 19 kts 249°
2026-04-14 07:59 50.03957 8.54758 366 ft 21 kts 249°
2026-04-14 07:59 50.03902 8.54529 367 ft 24 kts 250°
2026-04-14 08:00 50.03827 8.54302 364 ft 25 kts 233°
2026-04-14 08:00 50.03774 8.54114 368 ft 19 kts 250°
2026-04-14 08:00 50.03724 8.53903 364 ft 22 kts 250°
2026-04-14 08:00 50.03668 8.53671 365 ft 23 kts 249°
2026-04-14 08:01 50.03608 8.53431 365 ft 25 kts 250°
2026-04-14 08:01 50.03548 8.53178 371 ft 24 kts 250°
2026-04-14 08:01 50.03489 8.52933 368 ft 21 kts 249°
2026-04-14 08:01 50.03443 8.52761 368 ft 18 kts 248°
2026-04-14 08:02 50.03378 8.52610 371 ft 18 kts 209°
2026-04-14 08:02 50.03246 8.52594 366 ft 25 kts 180°
2026-04-14 08:02 50.02817 8.52597 365 ft 102 kts 180°
2026-04-14 08:02 50.01894 8.52609 373 ft 163 kts 179°
2026-04-14 08:03 50.00731 8.52646 1030 ft 169 kts 179°
2026-04-14 08:03 49.99532 8.52701 1871 ft 179 kts 178°
2026-04-14 08:03 49.98194 8.52786 2530 ft 206 kts 177°
2026-04-14 08:03 49.96656 8.52898 3268 ft 233 kts 176°
2026-04-14 08:04 49.94989 8.53018 4317 ft 242 kts 176°
2026-04-14 08:04 49.93296 8.53136 5429 ft 244 kts 178°
2026-04-14 08:04 49.91593 8.53254 6470 ft 246 kts 178°
2026-04-14 08:04 49.89875 8.53368 7460 ft 248 kts 179°
2026-04-14 08:05 49.88165 8.53478 8465 ft 249 kts 179°
2026-04-14 08:05 49.86423 8.53594 9486 ft 251 kts 179°
2026-04-14 08:05 49.84668 8.53712 10481 ft 252 kts 179°
2026-04-14 08:05 49.82904 8.53828 11385 ft 255 kts 179°
2026-04-14 08:06 49.81119 8.53945 12291 ft 258 kts 180°
2026-04-14 08:06 49.79317 8.54064 13209 ft 261 kts 180°
2026-04-14 08:06 49.77516 8.54073 14038 ft 266 kts 186°
2026-04-14 08:06 49.75585 8.53835 14366 ft 290 kts 187°
2026-04-14 08:07 49.73488 8.53552 14636 ft 313 kts 187°
2026-04-14 08:07 49.71241 8.53239 15010 ft 331 kts 187°
2026-04-14 08:07 49.68918 8.52919 15695 ft 337 kts 187°
2026-04-14 08:07 49.66569 8.52602 16458 ft 341 kts 186°
2026-04-14 08:08 49.64181 8.52285 17225 ft 345 kts 186°
2026-04-14 08:08 49.61779 8.51965 17990 ft 348 kts 186°
2026-04-14 08:08 49.59385 8.51649 18697 ft 352 kts 186°
2026-04-14 08:08 49.56932 8.51331 19354 ft 355 kts 186°
2026-04-14 08:09 49.54453 8.51012 20010 ft 359 kts 186°
2026-04-14 08:09 49.51951 8.50688 20665 ft 362 kts 186°
2026-04-14 08:09 49.49425 8.50358 21317 ft 366 kts 186°
2026-04-14 08:09 49.46873 8.50023 21925 ft 370 kts 186°
2026-04-14 08:10 49.44299 8.49687 22123 ft 371 kts 186°
2026-04-14 08:10 49.41804 8.49361 22163 ft 355 kts 186°
2026-04-14 08:10 49.39394 8.49048 22164 ft 341 kts 186°
2026-04-14 08:10 49.37045 8.48742 22166 ft 337 kts 186°
2026-04-14 08:11 49.34707 8.48440 22164 ft 336 kts 186°
2026-04-14 08:11 49.32379 8.48139 22160 ft 336 kts 186°
2026-04-14 08:11 49.30042 8.47989 22165 ft 337 kts 176°
2026-04-14 08:11 49.27754 8.48786 22159 ft 340 kts 160°
2026-04-14 08:12 49.25674 8.50423 22154 ft 342 kts 148°
2026-04-14 08:12 49.23670 8.52463 22155 ft 343 kts 149°
2026-04-14 08:12 49.21686 8.54408 22139 ft 342 kts 150°
2026-04-14 08:12 49.19664 8.56346 22138 ft 342 kts 150°
2026-04-14 08:13 49.17635 8.58245 22136 ft 342 kts 154°
2026-04-14 08:13 49.15444 8.59623 22136 ft 339 kts 166°
2026-04-14 08:13 49.13122 8.60266 22018 ft 339 kts 178°
2026-04-14 08:13 49.10786 8.60163 21746 ft 335 kts 187°
2026-04-14 08:14 49.08476 8.59803 21452 ft 331 kts 187°
2026-04-14 08:14 49.06193 8.59452 21048 ft 329 kts 187°
2026-04-14 08:14 49.03919 8.59110 20623 ft 329 kts 187°
2026-04-14 08:14 49.01669 8.58776 20202 ft 329 kts 187°
2026-04-14 08:15 48.99390 8.58484 19770 ft 328 kts 182°
2026-04-14 08:15 48.97110 8.58668 19305 ft 329 kts 177°
2026-04-14 08:15 48.94828 8.58944 18834 ft 329 kts 177°
2026-04-14 08:15 48.93311 8.59128 18524 ft 330 kts 177°
2026-04-14 08:16 48.91019 8.59402 18009 ft 330 kts 177°
2026-04-14 08:16 48.88732 8.59674 17545 ft 328 kts 176°
2026-04-14 08:16 48.86510 8.60416 17090 ft 329 kts 158°
2026-04-14 08:16 48.84161 8.63290 16488 ft 333 kts 126°
2026-04-14 08:17 48.83447 8.65402 16202 ft 334 kts 109°
2026-04-14 08:17 48.83165 8.68844 15791 ft 335 kts 85°
2026-04-14 08:17 48.83564 8.72318 15374 ft 334 kts 79°
2026-04-14 08:17 48.84013 8.75776 14961 ft 333 kts 79°
2026-04-14 08:18 48.84458 8.79212 14527 ft 331 kts 79°
2026-04-14 08:18 48.84898 8.82646 14112 ft 330 kts 79°
2026-04-14 08:18 48.85334 8.86068 13662 ft 329 kts 79°
2026-04-14 08:18 48.85765 8.89463 13250 ft 326 kts 79°
2026-04-14 08:19 48.86192 8.92851 12690 ft 327 kts 79°
2026-04-14 08:19 48.86617 8.96228 12307 ft 322 kts 79°
2026-04-14 08:19 48.87038 8.99575 11822 ft 321 kts 79°
2026-04-14 08:19 48.87450 9.02857 11398 ft 319 kts 79°
2026-04-14 08:20 48.87865 9.06146 10984 ft 316 kts 79°
2026-04-14 08:20 48.88273 9.09423 10600 ft 313 kts 79°
2026-04-14 08:20 48.88677 9.12674 10188 ft 311 kts 79°
2026-04-14 08:20 48.89076 9.15903 9733 ft 309 kts 79°
2026-04-14 08:21 48.89465 9.19044 9590 ft 297 kts 79°
2026-04-14 08:21 48.89840 9.22086 9127 ft 288 kts 79°
2026-04-14 08:21 48.90210 9.25058 8460 ft 282 kts 79°
2026-04-14 08:21 48.90569 9.27936 8031 ft 269 kts 79°
2026-04-14 08:22 48.90906 9.30682 7565 ft 260 kts 79°
2026-04-14 08:22 48.91226 9.33313 7010 ft 258 kts 79°
2026-04-14 08:22 48.91551 9.36000 6641 ft 256 kts 79°
2026-04-14 08:22 48.91866 9.38664 6250 ft 255 kts 79°
2026-04-14 08:23 48.92167 9.41277 6058 ft 245 kts 79°
2026-04-14 08:23 48.92455 9.43776 5926 ft 234 kts 79°
2026-04-14 08:23 48.92520 9.46181 5770 ft 225 kts 103°
2026-04-14 08:23 48.91790 9.48221 5474 ft 221 kts 138°
2026-04-14 08:24 48.90463 9.49351 5142 ft 220 kts 161°
2026-04-14 08:24 48.89007 9.50091 4898 ft 219 kts 163°
2026-04-14 08:24 48.87567 9.50778 4709 ft 220 kts 164°
2026-04-14 08:24 48.86104 9.51461 4530 ft 219 kts 164°
2026-04-14 08:25 48.84645 9.52141 4342 ft 219 kts 164°
2026-04-14 08:25 48.83191 9.52830 4165 ft 218 kts 164°
2026-04-14 08:25 48.81742 9.53511 4030 ft 218 kts 164°
2026-04-14 08:25 48.80293 9.54187 3960 ft 218 kts 164°
2026-04-14 08:26 48.78825 9.54742 3956 ft 216 kts 176°
2026-04-14 08:26 48.77381 9.54607 3956 ft 201 kts 196°
2026-04-14 08:26 48.76128 9.53838 3959 ft 194 kts 214°
2026-04-14 08:26 48.75107 9.52548 3965 ft 190 kts 232°
2026-04-14 08:27 48.74409 9.50879 3967 ft 187 kts 250°
2026-04-14 08:27 48.74023 9.49011 3968 ft 185 kts 257°
2026-04-14 08:27 48.73685 9.47198 3994 ft 172 kts 257°
2026-04-14 08:27 48.73364 9.45476 3972 ft 168 kts 257°
2026-04-14 08:28 48.73048 9.43785 3826 ft 166 kts 257°
2026-04-14 08:28 48.72735 9.42113 3624 ft 164 kts 257°
2026-04-14 08:28 48.72426 9.40463 3421 ft 163 kts 257°
2026-04-14 08:28 48.72117 9.38812 3199 ft 162 kts 257°
2026-04-14 08:29 48.71814 9.37196 2995 ft 161 kts 257°
2026-04-14 08:29 48.71510 9.35579 2781 ft 155 kts 257°
2026-04-14 08:29 48.71225 9.34068 2563 ft 144 kts 257°
2026-04-14 08:29 48.70959 9.32652 2372 ft 137 kts 257°
2026-04-14 08:30 48.70703 9.31273 2171 ft 135 kts 257°
2026-04-14 08:30 48.70454 9.29902 1968 ft 136 kts 257°
2026-04-14 08:30 48.70182 9.28523 1795 ft 137 kts 256°
2026-04-14 08:30 48.69909 9.27133 1612 ft 138 kts 257°
2026-04-14 08:31 48.69652 9.25715 1408 ft 141 kts 257°
2026-04-14 08:31 48.69155 9.23071 1216 ft 100 kts 255°
2026-04-14 08:31 48.69011 9.22311 1232 ft 51 kts 253°
2026-04-14 08:32 48.68947 9.21962 1242 ft 29 kts 259°
2026-04-14 08:32 48.68954 9.21676 1250 ft 23 kts 281°
2026-04-14 08:32 48.68982 9.21502 1255 ft 15 kts 284°
2026-04-14 08:32 48.69006 9.21357 1266 ft 14 kts 284°
2026-04-14 08:33 48.69028 9.21222 1265 ft 13 kts 283°
2026-04-14 08:33 48.69040 9.21095 1269 ft 12 kts 263°
2026-04-14 08:33 48.69018 9.20976 1273 ft 11 kts 254°
2026-04-14 08:33 48.68997 9.20865 1274 ft 10 kts 253°
2026-04-14 08:34 48.68979 9.20769 1276 ft 8 kts 253°
2026-04-14 08:34 48.68965 9.20702 1278 ft 5 kts 253°
2026-04-14 08:34 48.68958 9.20663 1281 ft 4 kts 255°
2026-04-14 08:34 48.68941 9.20570 1283 ft 13 kts 254°
2026-04-14 08:35 48.68912 9.20421 1285 ft 17 kts 253°
2026-04-14 08:35 48.68878 9.20240 1290 ft 18 kts 253°
2026-04-14 08:35 48.68843 9.20056 1294 ft 18 kts 253°
2026-04-14 08:35 48.68823 9.19927 1297 ft 8 kts 292°
2026-04-14 08:36 48.68853 9.19890 1300 ft 3 kts 333°
2026-04-14 08:36 48.68879 9.19873 1302 ft 6 kts 325°
2026-04-14 08:36 48.68884 9.19789 1305 ft 11 kts 253°
2026-04-14 08:36 48.68863 9.19679 1308 ft 10 kts 254°
2026-04-14 08:37 48.68845 9.19583 1310 ft 9 kts 254°
2026-04-14 08:37 48.68831 9.19509 1311 ft 6 kts 254°
2026-04-14 08:37 48.68833 9.19463 1313 ft 4 kts 307°
2026-04-14 08:37 48.68857 9.19446 1314 ft 4 kts 344°
2026-04-14 08:38 48.68878 9.19436 1315 ft 5 kts 343°
2026-04-14 08:38 48.68897 9.19428 1315 ft 0 kts 344°